ERS-1

Last updated on Thu Nov 21 2024 00:02:12 GMT+0000 (Coordinated Universal Time)

1 21574U 91050A 24325.34430966 .00000518 00000+0 18231-3 0 9996 2 21574 98.7881 320.6849 0032419 167.0082 193.1947 14.38885622747501
UTC large
Height (km)
Speed (km/s)
/
Latitude / Longitude
Inclination (degrees)
Orbital Period (minutes)
Azimuth
Elevation
Range (km)
Doppler Factor

Next 0 passes for location: London (51.5072 / 0.1276)

Sorry there are no passes over London.